Home > Weather > Kralendijk > Past weeks

Flag for Caribbean Netherlands Weather for the Past 2 Weeks in Kralendijk, Bonaire, Caribbean Netherlands

Now
84 °F

Scattered clouds.


Feels Like: 90 °F
Forecast: N/A
Wind: 21 mph from East

Location: Flamingo Airport - Bonaire

Current Time: Feb 14, 2016 at 3:34:25 PM

Latest Report: Feb 14, 2016 at 2:55 PM


Visibility: N/A

Pressure: 29.83 "Hg

Humidity: 66%

Dew point: 72 °F

Location of KralendijkLocation

Historic Weather in Kralendijk — Graph

°F

Kralendijk Temperature Yesterday

Maximum temperature yesterday: 84 °F (at 11:55 AM)
Minimum temperature yesterday: 79 °F (at 7:55 PM)
Average temperature yesterday: 81 °F

High & Low Weather Summary for the Past Weeks

 TemperatureHumidityPressure
High86 °F (Feb 2, 2:55 PM)94% (Feb 12, 4:55 AM)30.04 "Hg (Feb 12, 4:55 AM)
Low73 °F (Feb 5, 5:55 AM)55% (Feb 5, 11:55 AM)29.83 "Hg (Feb 7, 3:55 PM)
Average80 °F75%29.93 "Hg
* Reported Jan 30 1:55 PM — Feb 14 1:55 PM, Kralendijk, Weather by CustomWeather, © 2016

Note: Actual official high and low records may vary slightly from our data, if they occured in-between our weather recording intervals... More about our weather records

Advertising

Kralendijk Weather History for the Previous 24 Hours

 ConditionsComfort  
Time TempWeatherWind HumidityBarometerVisibility
1:55 PM
Sun, Feb 14
84 °FScattered clouds.21 mph66%29.86 "HgN/A
12:55 PM84 °FScattered clouds.22 mph66%29.89 "HgN/A
11:55 AM84 °FScattered clouds.23 mph62%29.92 "HgN/A
10:55 AM82 °FPassing clouds.21 mph66%29.95 "HgN/A
9:55 AM82 °FPassing clouds.24 mph66%29.92 "HgN/A
8:55 AM81 °FScattered clouds.18 mph70%29.92 "HgN/A
7:55 AM79 °FScattered clouds.20 mph74%29.92 "HgN/A
6:55 AM79 °FPartly sunny.16 mph74%29.89 "HgN/A
5:55 AM79 °FPartly cloudy.16 mph74%29.86 "HgN/A
4:55 AM79 °FPassing clouds.17 mph74%29.86 "HgN/A
3:55 AM79 °FPassing clouds.20 mph74%29.86 "HgN/A
2:55 AM79 °FPartly cloudy.18 mph74%29.86 "HgN/A
1:55 AM79 °FPartly cloudy.17 mph79%29.89 "HgN/A
12:55 AM79 °FPassing clouds.22 mph79%29.92 "HgN/A
11:55 PM
Sat, Feb 13
79 °FPartly cloudy.16 mph79%29.92 "HgN/A
10:55 PM79 °FClear.16 mph74%29.92 "HgN/A
9:55 PM79 °FWarm.20 mph79%29.89 "HgN/A
8:55 PM79 °FWarm.21 mph79%29.89 "HgN/A
7:55 PM79 °FPassing clouds.21 mph79%29.86 "HgN/A
6:55 PM81 °FPassing clouds.20 mph74%29.86 "HgN/A
5:55 PM81 °FPassing clouds.23 mph74%29.86 "HgN/A
4:55 PM82 °FPassing clouds.22 mph70%29.86 "HgN/A
3:55 PM82 °FScattered clouds.23 mph70%29.86 "HgN/A
Weather by CustomWeather, © 2016

See weather overviewHow to use our weather pages